Location: Bern�tre
(50.1974°N, 2.0915°E)
Time: 08:33:29
(UTC+00:00)

Cosmos 1464 Rocket - Pass Details

Date: 18 September 2020
Orbit: 953 x 1000 km, 82.9° (Epoch: 24 October)

Event Time Altitude Azimuth Distance (km) Brightness Sun altitude
Rises 19:42:53 0° 192° (SSW) 3,617 6.9 -17.1°
Reaches altitude 10° 19:45:22 10° 194° (SSW) 2,676 6.2 -17.5°
Maximum altitude 19:51:29 76° 280° (W) 990 4.1 -18.4°
Drops below altitude 10° 19:57:42 10° 7° (N) 2,712 6.6 -19.2°
Sets 20:00:14 0° 9° (N) 3,669 7.3 -19.6°
